Wind_Speed
18 17 17 16 16 17 17 17 16 16 17 17 17 18 18 19 20 20 21 22 23 23 24 24 24 24 25 26 26 27 28 29 30 31 32 33 34 35 36 35 35 36 37
16 16 16 16 16 15 16 16 16 16 16 16 16 17 18 19 20 20 20 21 22 22 23 23 23 24 25 25 26 28 28 28 29 29 30 31 32 32 33 35 36 36 37
15 15 14 14 14 14 15 15 15 15 16 16 17 17 18 19 19 20 21 22 23 23 22 22 23 24 25 26 26 27 26 26 27 28 29 30 30 31 32 32 33 34 36
14 14 13 13 13 13 14 15 15 16 16 16 16 17 17 18 19 20 21 22 23 22 22 22 23 24 25 26 26 25 25 25 26 27 27 27 28 29 30 31 31 32 33
13 13 12 12 12 13 14 14 15 16 16 16 16 16 17 18 19 20 21 22 23 23 22 22 23 23 24 25 26 26 26 25 25 25 25 25 25 27 28 29 29 30 31
13 12 12 12 13 13 14 14 15 15 16 16 17 17 18 19 20 21 21 21 22 22 22 22 22 22 24 24 25 25 25 25 25 24 25 25 25 25 25 27 28 29 30
12 12 12 13 13 13 13 14 15 15 16 17 17 18 19 20 21 21 21 21 21 21 21 21 21 22 23 24 25 25 25 25 25 25 25 25 25 25 25 26 27 28 28
12 12 12 12 13 14 15 15 15 16 17 17 18 19 19 20 20 21 21 21 21 21 21 22 22 23 24 24 25 25 25 25 25 24 24 25 25 25 25 25 25 26 27
12 13 12 12 13 14 15 15 15 16 17 17 19 19 19 19 20 21 22 22 22 21 21 22 22 23 24 24 25 25 25 25 25 25 25 24 24 24 24 24 24 24 25
12 12 12 12 13 14 15 15 16 16 17 18 19 19 19 20 21 22 22 23 22 22 22 23 23 24 24 25 25 25 24 24 24 24 24 24 24 24 24 25 25 26 26
11 11 11 12 13 14 15 16 16 17 17 18 19 19 20 21 22 22 23 23 23 23 23 24 24 24 25 25 24 25 25 24 23 23 23 22 22 22 23 23 23 24 25
11 11 12 13 14 14 15 16 17 18 18 18 19 19 20 22 23 23 24 24 24 23 23 23 24 24 24 24 24 24 24 23 23 22 21 20 20 20 21 22 22 22 22
12 12 13 14 15 15 16 17 18 18 18 18 19 19 21 22 23 24 24 23 23 23 23 23 23 23 24 24 24 23 23 23 22 21 20 19 19 19 20 20 20 21 21
12 12 13 14 14 15 16 17 17 18 18 18 19 20 21 22 23 23 23 23 23 24 24 24 24 23 24 24 24 24 23 21 21 20 19 18 18 18 19 19 19 20 21
12 12 13 13 14 15 16 16 17 18 18 19 19 20 21 22 22 23 24 24 24 24 24 24 24 23 24 24 24 23 22 21 20 19 18 18 18 18 18 18 19 19 20
12 12 13 14 14 14 15 16 17 17 18 19 20 21 21 22 23 24 24 24 24 24 24 24 23 23 24 24 25 24 23 21 20 20 19 18 18 18 18 18 19 19 18
11 12 13 14 14 14 15 16 16 17 18 19 20 21 22 23 24 24 25 24 24 24 24 24 24 24 24 24 25 25 23 22 20 19 19 19 19 19 19 19 19 18 18
11 12 12 13 14 14 15 15 16 17 18 19 20 21 23 24 24 25 25 25 25 24 24 25 25 25 25 25 25 25 24 22 20 19 19 19 19 19 19 20 19 18 18
11 11 12 13 13 14 14 15 16 18 19 20 21 22 23 24 25 25 25 25 25 25 24 25 26 26 26 26 26 25 24 22 21 20 19 19 19 19 20 20 19 18 18
11 11 11 12 13 14 14 15 16 18 19 20 22 22 23 24 25 25 25 25 25 25 25 25 26 26 27 27 27 26 24 22 21 20 20 20 19 19 19 19 18 17 17
11 11 11 11 12 13 14 15 16 17 19 20 22 23 23 24 24 25 25 26 26 26 26 26 26 27 28 28 28 27 25 23 22 21 21 20 20 20 20 19 18 17 16
11 11 10 11 11 12 13 15 16 17 18 20 21 23 24 24 24 25 26 26 27 27 27 27 27 27 28 28 28 27 26 24 24 23 21 21 21 21 20 19 18 17 16
10 10 10 11 11 12 14 14 15 16 18 19 21 23 24 24 25 25 26 27 27 27 28 28 28 28 28 29 28 28 27 26 25 24 24 23 22 21 20 18 17 16 16
10 10 10 11 11 12 13 14 15 16 18 19 20 22 24 25 25 26 26 27 27 27 28 28 29 29 30 29 29 29 28 27 26 25 25 24 23 21 19 18 17 16 15
10 10 10 10 11 12 13 14 16 16 17 18 20 22 23 25 26 26 27 27 28 28 28 29 30 30 30 30 30 30 29 28 28 27 26 24 22 20 18 18 17 16 15
10 10 10 11 11 12 13 14 15 16 17 18 20 22 23 25 26 26 27 28 28 29 30 30 31 30 30 30 30 30 29 29 29 28 27 24 22 19 18 17 16 15 15
Wind_Direction
307 307 306 303 302 300 301 302 304 306 304 302 302 302 303 303 302 302 303 302 302 301 298 294 293 291 290 289 289 287 284 281 278 277 275 273 271 269 267 264 261 259 257
312 311 309 306 305 304 306 307 307 308 309 305 305 306 306 308 309 308 304 303 303 300 297 297 295 294 292 291 291 290 288 285 282 280 277 275 272 271 270 266 263 261 258
316 314 314 313 311 311 314 315 314 314 317 313 310 310 312 312 312 311 307 306 307 304 301 299 297 295 295 295 293 293 292 289 285 281 279 277 275 273 270 268 265 262 259
321 320 320 319 318 317 320 322 324 321 322 320 314 314 315 315 315 313 310 310 309 308 304 302 301 300 298 298 296 295 294 291 289 286 283 280 276 273 271 268 265 264 261
326 327 326 327 324 322 324 326 330 329 327 324 322 319 317 318 319 317 315 314 314 313 311 307 304 302 302 301 300 297 295 292 290 288 285 282 280 276 273 269 266 265 264
329 331 329 331 330 328 330 332 333 332 331 329 328 325 323 324 323 321 321 321 320 320 317 311 306 304 303 303 303 302 298 296 293 291 287 284 281 280 276 272 269 268 267
332 333 333 334 335 336 338 337 335 333 332 331 332 330 329 327 326 325 326 325 324 322 321 317 313 310 309 307 306 304 301 300 296 292 289 287 283 281 278 274 271 269 266
336 338 338 339 339 339 339 337 336 336 333 330 333 332 331 330 330 332 331 329 326 325 324 322 319 315 312 311 309 305 303 302 299 295 293 290 287 284 281 278 276 272 269
338 340 340 340 340 341 341 341 341 338 334 332 332 333 333 334 335 335 335 334 332 329 326 325 321 317 314 312 312 309 306 304 301 297 296 294 290 287 283 279 276 275 272
339 341 342 342 342 342 342 343 342 339 337 336 336 336 336 337 337 336 337 336 334 331 327 324 322 320 318 316 315 314 310 307 303 300 297 295 291 288 284 281 278 276 274
343 345 345 342 343 343 343 344 342 341 340 339 339 338 338 338 338 339 338 337 336 333 330 326 324 322 321 319 318 317 315 311 306 303 301 299 295 292 288 284 282 280 277
342 342 341 340 340 340 342 342 343 341 340 340 341 341 341 341 340 340 340 338 337 335 333 331 329 327 327 326 323 322 319 316 313 309 307 305 302 297 292 288 286 285 281
338 338 338 338 341 344 343 343 343 344 344 344 345 344 343 342 341 342 342 341 341 340 338 336 334 332 332 331 330 327 324 322 319 315 311 309 306 303 299 295 292 289 287
340 339 339 341 345 346 345 346 347 347 347 347 346 345 345 345 345 345 346 345 344 344 343 340 338 337 336 335 333 332 330 326 324 321 316 314 310 306 304 301 297 295 292
340 341 343 345 346 346 348 349 349 349 349 349 349 348 349 349 349 348 348 347 347 347 346 345 343 341 340 339 337 335 333 331 328 324 321 318 315 311 308 307 303 301 297
338 341 345 346 346 348 350 349 350 350 351 351 351 350 351 352 352 351 350 349 349 349 349 349 348 345 343 342 341 338 336 333 331 327 324 321 318 315 312 311 309 305 301
340 343 346 347 348 350 351 351 352 354 354 354 354 354 354 354 354 354 353 352 352 352 351 351 350 348 346 344 344 343 340 337 334 330 327 324 322 320 319 318 316 312 308
338 340 344 345 348 350 351 353 355 355 356 356 356 357 357 356 355 355 354 354 354 352 352 352 352 350 348 347 346 344 342 341 338 335 331 327 324 323 322 321 319 314 312
334 337 340 343 346 348 351 353 354 354 355 356 356 356 356 357 356 355 354 354 353 353 353 353 351 351 350 349 348 346 344 342 340 338 336 332 329 326 324 322 319 315 315
334 335 336 339 342 346 349 351 352 354 355 355 355 355 355 356 356 356 355 353 352 352 352 352 352 351 351 351 351 349 347 344 342 341 340 337 332 329 328 326 323 319 318
332 334 333 334 339 344 347 350 352 353 354 355 356 356 356 357 357 356 355 355 355 354 354 354 353 353 352 353 354 353 350 347 344 343 340 338 335 332 330 328 326 323 323
329 331 330 333 338 342 345 347 350 353 355 356 357 357 358 358 357 355 355 355 355 355 355 354 354 354 354 354 355 354 353 350 348 346 343 340 337 335 333 330 329 327 324
323 328 329 331 334 338 341 346 349 352 355 356 356 357 358 359 357 356 355 354 354 355 356 355 355 355 354 354 354 354 353 352 350 348 346 343 340 338 336 333 331 329 328
314 320 322 325 331 334 339 344 347 349 351 353 355 357 358 359 358 357 355 355 355 355 356 356 356 355 354 354 354 353 352 352 352 350 347 345 343 341 340 338 336 334 332
304 312 314 316 322 328 334 339 343 344 346 349 352 354 356 357 357 357 356 356 355 355 355 355 355 355 354 354 353 353 352 352 352 352 350 347 345 343 342 341 341 340 338
299 303 307 310 314 322 329 334 337 339 342 345 349 352 354 355 356 357 357 356 356 355 354 354 354 353 352 352 353 353 354 353 352 353 353 351 349 347 345 344 343 342 341
Height
5753 5750 5747 5745 5743 5741 5739 5737 5735 5733 5730 5728 5726 5723 5721 5719 5716 5714 5711 5708 5704 5701 5698 5696 5694 5692 5689 5687 5684 5682 5680 5678 5677 5676 5674 5673 5672 5671 5671 5671 5672 5673 5674
5748 5745 5743 5741 5739 5737 5735 5733 5731 5729 5726 5724 5721 5719 5717 5714 5711 5708 5705 5701 5698 5695 5692 5690 5687 5685 5682 5679 5677 5674 5671 5669 5667 5666 5664 5663 5662 5662 5661 5661 5661 5662 5664
5744 5742 5739 5737 5735 5733 5731 5729 5727 5725 5722 5719 5717 5714 5712 5709 5706 5703 5699 5696 5693 5689 5686 5683 5681 5678 5675 5672 5669 5665 5663 5660 5658 5657 5655 5654 5653 5652 5651 5651 5651 5652 5653
5741 5739 5736 5734 5732 5730 5728 5726 5724 5721 5718 5716 5713 5710 5707 5704 5701 5698 5694 5691 5687 5684 5680 5677 5674 5671 5668 5665 5661 5658 5655 5653 5650 5648 5646 5645 5643 5642 5642 5641 5641 5641 5642
5739 5736 5734 5732 5730 5728 5726 5724 5721 5718 5715 5713 5709 5707 5704 5700 5697 5693 5689 5686 5682 5678 5674 5671 5668 5665 5661 5658 5654 5651 5648 5645 5642 5640 5638 5636 5635 5634 5633 5632 5632 5632 5632
5737 5735 5732 5730 5728 5726 5724 5721 5719 5716 5713 5710 5707 5703 5700 5696 5693 5689 5685 5681 5677 5673 5669 5665 5662 5659 5655 5652 5648 5644 5641 5638 5635 5633 5630 5628 5627 5625 5624 5623 5623 5623 5623
5736 5734 5731 5729 5726 5724 5721 5719 5716 5713 5710 5707 5704 5700 5697 5693 5689 5685 5680 5676 5672 5668 5664 5660 5657 5653 5649 5646 5642 5638 5634 5630 5628 5626 5623 5621 5619 5617 5616 5615 5614 5613 5614
5735 5733 5730 5728 5725 5723 5720 5717 5714 5711 5708 5704 5701 5697 5693 5689 5685 5681 5676 5672 5668 5663 5659 5655 5652 5648 5644 5640 5636 5632 5628 5624 5621 5618 5615 5613 5611 5609 5608 5607 5605 5605 5605
5734 5731 5729 5726 5724 5721 5718 5715 5712 5709 5705 5702 5698 5694 5690 5686 5681 5677 5673 5668 5663 5659 5655 5651 5647 5643 5639 5634 5630 5626 5621 5617 5613 5610 5608 5605 5603 5601 5600 5598 5597 5596 5596
5732 5730 5727 5725 5722 5720 5717 5713 5710 5706 5703 5699 5695 5691 5687 5683 5678 5674 5669 5664 5659 5655 5651 5646 5642 5637 5633 5628 5624 5619 5614 5610 5607 5603 5600 5597 5595 5593 5591 5590 5589 5587 5587
5731 5729 5726 5724 5721 5718 5715 5712 5708 5704 5701 5697 5693 5688 5684 5680 5675 5670 5665 5660 5656 5651 5646 5641 5637 5632 5627 5622 5617 5612 5608 5603 5599 5596 5592 5589 5587 5585 5583 5581 5580 5579 5578
5730 5728 5725 5722 5719 5716 5713 5710 5706 5702 5698 5694 5690 5686 5681 5676 5672 5666 5661 5656 5651 5646 5642 5636 5631 5626 5621 5616 5611 5606 5601 5596 5592 5589 5585 5582 5580 5578 5576 5574 5572 5571 5570
5729 5726 5724 5721 5718 5714 5711 5707 5703 5699 5695 5691 5687 5683 5678 5673 5668 5663 5658 5653 5648 5643 5637 5632 5627 5622 5616 5611 5606 5600 5595 5591 5587 5583 5579 5576 5574 5571 5569 5567 5565 5563 5561
5727 5724 5722 5719 5716 5712 5709 5705 5701 5697 5693 5689 5685 5680 5675 5670 5665 5660 5655 5649 5644 5639 5634 5628 5623 5617 5612 5606 5601 5596 5591 5586 5582 5578 5574 5571 5568 5566 5563 5561 5558 5556 5554
5725 5723 5720 5717 5714 5710 5707 5703 5699 5695 5691 5687 5682 5677 5673 5668 5662 5657 5651 5646 5641 5636 5630 5624 5619 5613 5608 5602 5597 5592 5587 5582 5578 5574 5570 5567 5563 5560 5558 5555 5552 5550 5547
5723 5721 5718 5715 5711 5708 5705 5701 5697 5693 5689 5685 5680 5675 5670 5665 5660 5654 5649 5643 5638 5632 5627 5621 5616 5610 5605 5599 5594 5588 5583 5578 5574 5570 5566 5563 5559 5556 5553 5550 5546 5543 5541
5721 5719 5716 5713 5710 5706 5703 5700 5696 5692 5687 5683 5678 5673 5668 5663 5658 5652 5647 5641 5636 5630 5625 5619 5613 5607 5602 5596 5591 5585 5580 5575 5570 5566 5562 5558 5555 5551 5548 5544 5541 5538 5535
5719 5717 5714 5711 5708 5705 5702 5698 5694 5690 5686 5681 5677 5672 5667 5661 5656 5650 5645 5639 5634 5628 5622 5617 5611 5605 5599 5594 5588 5582 5576 5571 5567 5562 5558 5554 5551 5547 5543 5540 5536 5533 5530
5717 5715 5712 5709 5707 5703 5700 5697 5693 5689 5684 5680 5675 5670 5665 5660 5655 5649 5643 5638 5632 5626 5620 5615 5609 5603 5597 5591 5585 5579 5573 5568 5563 5559 5555 5550 5546 5542 5539 5535 5531 5528 5525
5714 5712 5710 5708 5705 5702 5698 5695 5691 5687 5683 5679 5674 5669 5664 5659 5653 5648 5642 5636 5630 5625 5619 5613 5607 5601 5595 5589 5583 5576 5571 5565 5560 5556 5551 5547 5542 5538 5535 5531 5527 5523 5520
5712 5710 5708 5705 5703 5700 5697 5694 5690 5686 5682 5678 5673 5668 5663 5657 5652 5646 5641 5635 5629 5623 5617 5611 5606 5599 5593 5587 5581 5574 5568 5563 5557 5553 5548 5543 5539 5535 5531 5526 5522 5519 5516
5710 5708 5706 5703 5701 5699 5695 5692 5689 5685 5681 5677 5672 5667 5662 5656 5651 5645 5640 5634 5628 5622 5616 5610 5604 5598 5591 5585 5579 5572 5566 5560 5555 5550 5545 5540 5536 5531 5527 5523 5519 5515 5512
5708 5705 5703 5701 5699 5697 5694 5691 5687 5684 5680 5675 5671 5666 5661 5655 5650 5644 5639 5633 5627 5621 5615 5608 5602 5596 5590 5583 5577 5571 5565 5559 5553 5547 5542 5537 5532 5527 5523 5519 5515 5511 5508
5705 5703 5701 5699 5697 5695 5692 5689 5686 5682 5678 5674 5670 5665 5660 5654 5649 5643 5637 5631 5625 5619 5613 5607 5601 5594 5587 5581 5575 5569 5562 5556 5551 5545 5539 5534 5529 5524 5520 5515 5512 5508 5505
5702 5700 5698 5697 5695 5693 5690 5687 5684 5681 5677 5673 5668 5664 5658 5653 5648 5642 5636 5630 5624 5618 5612 5605 5599 5592 5586 5579 5573 5567 5561 5554 5548 5542 5536 5531 5526 5521 5517 5513 5509 5506 5503
5698 5697 5695 5694 5692 5690 5688 5685 5682 5679 5675 5671 5667 5662 5657 5652 5646 5641 5635 5629 5623 5616 5610 5603 5597 5590 5584 5577 5571 5565 5559 5552 5546 5540 5533 5528 5523 5518 5514 5510 5507 5503 5500